This demonstration page uses our WeatherBlox Daily Observations layout. Learn more.

Left ArrowRight Arrow

Hourly Observations for September 9, 2019

Temp ( °F °C ) Dew Point ( °F °C ) Humidity (%) Winds ( mph kmh ) Pressure ( in mb ) Visibility ( mi km ) Precip ( " mm )
12:53 am 00:53 Mostly Cloudy with Fog 69 20.6 68 20 96 96 ESE 9 15 29.89 1012 1 1 0.00 0.00
1:49 am 01:49 Cloudy with Mist and Fog 70 21 68 20 94 94 ESE 12 19 29.85 1011 1 2 0.00 0.00
1:53 am 01:53 Cloudy with Mist and Fog 70 21.1 68 20 93 93 SE 9 15 29.88 1012 1 2 0.00 0.00
2:25 am 02:25 Cloudy with Mist and Fog 70 21 70 21 100 100 SE 10 17 29.84 1010 3 4 0.00 0.00
2:37 am 02:37 Cloudy with Mist and Fog 70 21.1 69 20.6 97 97 SE 10 17 29.83 1010 3 5 0.00 0.00
2:53 am 02:53 Cloudy with Mist and Fog 70 21.1 69 20.6 97 97 SE 9 15 29.85 1011 4 6 0.00 0.00
3:32 am 03:32 Cloudy with Mist and Fog 71 21.7 68 20 90 90 SE 9 15 29.80 1009 5 8 0.00 0.00
3:53 am 03:53 Cloudy with Mist and Fog 71 21.7 69 20.6 94 94 SE 9 15 29.83 1010 5 8 0.00 0.00
4:27 am 04:27 Cloudy with Mist and Fog 71 21.7 68 20 90 90 SSE 6 9 29.81 1010 6 10 0.00 0.00
4:53 am 04:53 Cloudy with Light Rain 71 21.7 68 20 90 90 SSE 8 13 29.86 1011 6 10 0.01 0.25
5:53 am 05:53 Cloudy with Mist and Fog 70 21.1 68 20 93 93 S 8 13 29.86 1011 6 10 0.00 0.00
6:53 am 06:53 Clear 70 21.1 67 19.4 90 90 S 7 11 29.86 1011 9 14 0.00 0.00
7:53 am 07:53 Mostly Cloudy 69 20.6 66 18.9 90 90 SSE 5 7 29.87 1012 9 14 0.00 0.00
8:31 am 08:31 Cloudy with Rain 69 20.6 67 19.4 93 93 ESE 3 6 29.81 1010 3 4 0.11 2.79
8:41 am 08:41 Cloudy with Rain 69 20.6 67 19.4 93 93 Calm 29.82 1010 3 5 0.13 3.30
8:53 am 08:53 Cloudy with Light Rain 69 20.6 67 19.4 93 93 Calm 29.86 1011 3 4 0.15 3.81
9:06 am 09:06 Cloudy with Light Rain 69 20.6 67 19.4 93 93 S 3 6 29.85 1011 4 6 0.01 0.25
9:18 am 09:18 Cloudy with Rain 69 20.6 67 19.4 93 93 SSW 3 6 29.85 1011 2 3 0.04 1.02
9:41 am 09:41 Mostly Cloudy with Light Rain 69 20.6 67 19.4 93 93 SSE 8 13 29.84 1011 4 6 0.07 1.78
9:53 am 09:53 Mostly Cloudy with Light Rain 69 20.6 67 19.4 93 93 SE 6 9 29.87 1012 4 6 0.08 2.03
10:53 am 10:53 Cloudy with Light Rain 70 21.1 67 19.4 90 90 SSE 10 17 29.86 1011 6 10 0.07 1.78
11:53 am 11:53 Mostly Cloudy with Light Rain 70 21.1 66 18.9 87 87 S 13 20 29.83 1010 9 14 0.01 0.25
12:53 pm 12:53 Partly Cloudy 72 22.2 66 18.9 82 82 S 15 24 29.83 1010 10 16 0.00 0.00
1:53 pm 13:53 Sunny 74 23.3 65 18.3 74 74 S 15 24 29.83 1010 10 16 0.00 0.00
2:53 pm 14:53 Mostly Sunny 77 25 66 18.9 69 69 S 13 20 29.81 1009 10 16 0.00 0.00
3:53 pm 15:53 Sunny 79 26.1 67 19.4 67 67 S 16 26 29.80 1009 10 16 0.00 0.00
4:53 pm 16:53 Sunny 82 27.8 68 20 63 63 S 14 22 29.78 1009 10 16 0.00 0.00
5:53 pm 17:53 Mostly Sunny 81 27.2 66 18.9 61 61 S 10 17 29.78 1009 10 16 0.00 0.00
6:53 pm 18:53 Sunny 79 26.1 66 18.9 65 65 S 10 17 29.79 1009 10 16 0.00 0.00
7:53 pm 19:53 Mostly Sunny 77 25 67 19.4 71 71 S 6 9 29.81 1010 10 16 0.00 0.00
8:53 pm 20:53 Mostly Cloudy 76 24.4 68 20 77 77 SE 7 11 29.81 1010 10 16 0.00 0.00
9:53 pm 21:53 Clear 75 23.9 68 20 79 79 SSE 9 15 29.83 1010 10 16 0.00 0.00
10:53 pm 22:53 Clear 74 23.3 68 20 82 82 S 7 11 29.82 1010 10 16 0.00 0.00
11:53 pm 23:53 Clear 73 22.8 68 20 84 84 S 7 11 29.83 1010 10 16 0.00 0.00

Powered by AerisWeather